Time,TemperatureF,DewpointF,PressureIn,WindDirection,WindDirectionDegrees,WindSpeedMPH,WindSpeedGustMPH,Humidity,HourlyPrecipIn,Conditions,Clouds,dailyrainin,SoftwareType,DateUTC
2013-01-17 00:15:00,49.8,49.5,29.84,ENE,67,1.1,-999.0,99,-99.99,,,0.03,Acu-Link.com,2013-01-17 05:15:00,
2013-01-17 00:30:00,50.0,49.7,29.84,SSW,202,0.0,-999.0,99,-99.99,,,0.04,Acu-Link.com,2013-01-17 05:30:00,
2013-01-17 00:46:00,50.2,49.9,29.84,ESE,112,2.2,-999.0,99,-99.99,,,0.04,Acu-Link.com,2013-01-17 05:46:00,
2013-01-17 01:01:00,50.2,49.9,29.84,East,90,2.2,-999.0,99,-99.99,,,0.04,Acu-Link.com,2013-01-17 06:01:00,
2013-01-17 01:16:00,50.2,49.9,29.84,West,270,0.0,-999.0,99,-99.99,,,0.06,Acu-Link.com,2013-01-17 06:16:00,
2013-01-17 01:32:00,50.2,49.9,29.84,WSW,247,1.1,-999.0,99,-99.99,,,0.07,Acu-Link.com,2013-01-17 06:32:00,
2013-01-17 01:47:00,50.2,49.9,29.85,NNW,337,1.7,-999.0,99,-99.99,,,0.09,Acu-Link.com,2013-01-17 06:47:00,
2013-01-17 02:02:00,50.2,49.9,29.85,South,180,1.7,-999.0,99,-99.99,,,0.11,Acu-Link.com,2013-01-17 07:02:00,
2013-01-17 02:17:00,50.0,49.7,29.85,West,270,2.2,-999.0,99,-99.99,,,0.15,Acu-Link.com,2013-01-17 07:17:00,
2013-01-17 02:33:00,50.0,49.7,29.84,NNE,22,1.7,-999.0,99,-99.99,,,0.18,Acu-Link.com,2013-01-17 07:33:00,
2013-01-17 02:48:00,50.0,49.7,29.85,WSW,247,0.0,-999.0,99,-99.99,,,0.20,Acu-Link.com,2013-01-17 07:48:00,
2013-01-17 03:03:00,50.0,49.7,29.84,ESE,112,0.0,-999.0,99,-99.99,,,0.22,Acu-Link.com,2013-01-17 08:03:00,
2013-01-17 03:18:00,50.0,49.7,29.84,WSW,247,0.0,-999.0,99,-99.99,,,0.23,Acu-Link.com,2013-01-17 08:18:00,
2013-01-17 03:34:00,50.0,49.7,29.83,NNE,22,0.0,-999.0,99,-99.99,,,0.25,Acu-Link.com,2013-01-17 08:34:00,
2013-01-17 03:49:00,50.2,49.9,29.84,West,270,0.0,-999.0,99,-99.99,,,0.25,Acu-Link.com,2013-01-17 08:49:00,
2013-01-17 04:04:00,50.2,49.9,29.82,NNE,22,0.0,-999.0,99,-99.99,,,0.26,Acu-Link.com,2013-01-17 09:04:00,
2013-01-17 04:20:00,50.2,49.9,29.83,West,270,1.7,-999.0,99,-99.99,,,0.26,Acu-Link.com,2013-01-17 09:20:00,
2013-01-17 04:35:00,50.2,49.9,29.82,West,270,1.7,-999.0,99,-99.99,,,0.29,Acu-Link.com,2013-01-17 09:35:00,
2013-01-17 04:50:00,50.2,49.9,29.84,SW,225,4.2,-999.0,99,-99.99,,,0.33,Acu-Link.com,2013-01-17 09:50:00,
2013-01-17 05:06:00,50.0,49.7,29.85,South,180,2.7,-999.0,99,-99.99,,,0.40,Acu-Link.com,2013-01-17 10:06:00,
2013-01-17 05:21:00,50.0,49.7,29.85,WNW,292,2.7,-999.0,99,-99.99,,,0.42,Acu-Link.com,2013-01-17 10:21:00,
2013-01-17 05:36:00,49.8,49.5,29.85,SW,225,1.7,-999.0,99,-99.99,,,0.45,Acu-Link.com,2013-01-17 10:36:00,
2013-01-17 05:51:00,49.8,49.5,29.85,South,180,1.1,-999.0,99,-99.99,,,0.47,Acu-Link.com,2013-01-17 10:51:00,
2013-01-17 06:07:00,49.8,49.5,29.85,SW,225,5.3,-999.0,99,-99.99,,,0.48,Acu-Link.com,2013-01-17 11:07:00,
2013-01-17 06:22:00,49.6,49.3,29.86,NE,45,3.7,-999.0,99,-99.99,,,0.49,Acu-Link.com,2013-01-17 11:22:00,
2013-01-17 06:37:00,49.6,49.3,29.86,NE,45,2.2,-999.0,99,-99.99,,,0.49,Acu-Link.com,2013-01-17 11:37:00,
2013-01-17 06:53:00,49.6,49.3,29.86,West,270,1.7,-999.0,99,-99.99,,,0.50,Acu-Link.com,2013-01-17 11:53:00,
2013-01-17 07:08:00,49.5,49.2,29.87,NW,315,1.7,-999.0,99,-99.99,,,0.51,Acu-Link.com,2013-01-17 12:08:00,
2013-01-17 07:23:00,49.5,49.2,29.87,SSW,202,1.7,-999.0,99,-99.99,,,0.51,Acu-Link.com,2013-01-17 12:23:00,
2013-01-17 07:39:00,49.5,49.2,29.88,West,270,2.2,-999.0,99,-99.99,,,0.52,Acu-Link.com,2013-01-17 12:39:00,
2013-01-17 07:54:00,49.5,49.2,29.88,SSW,202,0.0,-999.0,99,-99.99,,,0.54,Acu-Link.com,2013-01-17 12:54:00,
2013-01-17 08:09:00,49.6,49.3,29.89,West,270,0.0,-999.0,99,-99.99,,,0.54,Acu-Link.com,2013-01-17 13:09:00,
2013-01-17 08:24:00,49.8,49.5,29.89,NNE,22,1.7,-999.0,99,-99.99,,,0.56,Acu-Link.com,2013-01-17 13:24:00,
2013-01-17 08:40:00,49.8,49.5,29.90,NE,45,2.7,-999.0,99,-99.99,,,0.59,Acu-Link.com,2013-01-17 13:40:00,
2013-01-17 08:55:00,49.8,49.5,29.90,ESE,112,0.0,-999.0,99,-99.99,,,0.62,Acu-Link.com,2013-01-17 13:55:00,
2013-01-17 09:10:00,49.8,49.5,29.91,SSW,202,4.7,-999.0,99,-99.99,,,0.63,Acu-Link.com,2013-01-17 14:10:00,
2013-01-17 09:26:00,49.8,49.5,29.91,NNE,22,2.2,-999.0,99,-99.99,,,0.64,Acu-Link.com,2013-01-17 14:26:00,
2013-01-17 09:41:00,50.0,49.7,29.91,East,90,1.1,-999.0,99,-99.99,,,0.66,Acu-Link.com,2013-01-17 14:41:00,
2013-01-17 09:56:00,50.2,49.9,29.90,NE,45,3.2,-999.0,99,-99.99,,,0.66,Acu-Link.com,2013-01-17 14:56:00,
2013-01-17 10:12:00,50.4,50.1,29.90,North,0,2.2,-999.0,99,-99.99,,,0.66,Acu-Link.com,2013-01-17 15:12:00,
2013-01-17 10:27:00,50.4,50.1,29.92,SSE,157,2.7,-999.0,99,-99.99,,,0.67,Acu-Link.com,2013-01-17 15:27:00,
2013-01-17 10:42:00,50.2,49.9,29.90,West,270,2.7,-999.0,99,-99.99,,,0.67,Acu-Link.com,2013-01-17 15:42:00,
2013-01-17 10:57:00,50.0,49.7,29.89,WSW,247,4.2,-999.0,99,-99.99,,,0.67,Acu-Link.com,2013-01-17 15:57:00,
2013-01-17 11:13:00,50.2,49.9,29.87,West,270,2.7,-999.0,99,-99.99,,,0.67,Acu-Link.com,2013-01-17 16:13:00,
2013-01-17 11:28:00,50.2,49.9,29.87,SW,225,2.2,-999.0,99,-99.99,,,0.68,Acu-Link.com,2013-01-17 16:28:00,
2013-01-17 11:43:00,50.0,49.7,29.85,North,0,3.2,-999.0,99,-99.99,,,0.68,Acu-Link.com,2013-01-17 16:43:00,
2013-01-17 11:59:00,50.2,49.9,29.85,NE,45,2.7,-999.0,99,-99.99,,,0.68,Acu-Link.com,2013-01-17 16:59:00,
2013-01-17 12:14:00,50.2,49.9,29.84,West,270,1.7,-999.0,99,-99.99,,,0.70,Acu-Link.com,2013-01-17 17:14:00,
2013-01-17 12:29:00,50.4,50.1,29.83,West,270,2.2,-999.0,99,-99.99,,,0.70,Acu-Link.com,2013-01-17 17:29:00,
2013-01-17 12:45:00,50.2,49.9,29.81,SW,225,4.2,-999.0,99,-99.99,,,0.70,Acu-Link.com,2013-01-17 17:45:00,
2013-01-17 13:00:00,49.8,49.5,29.81,SW,225,2.7,-999.0,99,-99.99,,,0.70,Acu-Link.com,2013-01-17 18:00:00,
2013-01-17 13:15:00,49.5,49.2,29.81,WSW,247,3.7,-999.0,99,-99.99,,,0.71,Acu-Link.com,2013-01-17 18:15:00,
2013-01-17 13:30:00,49.3,49.0,29.81,ESE,112,1.7,-999.0,99,-99.99,,,0.71,Acu-Link.com,2013-01-17 18:30:00,
2013-01-17 13:46:00,49.1,48.8,29.79,NW,315,3.2,-999.0,99,-99.99,,,0.71,Acu-Link.com,2013-01-17 18:46:00,
2013-01-17 14:01:00,49.1,48.8,29.79,South,180,4.2,-999.0,99,-99.99,,,0.71,Acu-Link.com,2013-01-17 19:01:00,
2013-01-17 14:16:00,48.9,48.6,29.79,NW,315,2.7,-999.0,99,-99.99,,,0.71,Acu-Link.com,2013-01-17 19:16:00,
2013-01-17 14:32:00,48.9,48.6,29.77,North,0,4.2,-999.0,99,-99.99,,,0.72,Acu-Link.com,2013-01-17 19:32:00,
2013-01-17 14:47:00,48.9,48.6,29.77,North,0,4.7,-999.0,99,-99.99,,,0.72,Acu-Link.com,2013-01-17 19:47:00,
2013-01-17 15:02:00,48.9,48.6,29.76,South,180,3.2,-999.0,99,-99.99,,,0.72,Acu-Link.com,2013-01-17 20:02:00,
2013-01-17 15:18:00,48.7,48.4,29.77,West,270,2.7,-999.0,99,-99.99,,,0.73,Acu-Link.com,2013-01-17 20:18:00,
2013-01-17 15:33:00,48.6,48.3,29.77,NNE,22,4.7,-999.0,99,-99.99,,,0.73,Acu-Link.com,2013-01-17 20:33:00,
2013-01-17 15:48:00,48.6,48.3,29.77,SSW,202,1.7,-999.0,99,-99.99,,,0.74,Acu-Link.com,2013-01-17 20:48:00,
2013-01-17 16:03:00,48.2,47.9,29.78,ENE,67,2.7,-999.0,99,-99.99,,,0.74,Acu-Link.com,2013-01-17 21:03:00,
2013-01-17 16:19:00,47.7,47.4,29.78,SW,225,5.3,-999.0,99,-99.99,,,0.75,Acu-Link.com,2013-01-17 21:19:00,
2013-01-17 16:34:00,46.9,46.6,29.77,NE,45,4.2,-999.0,99,-99.99,,,0.76,Acu-Link.com,2013-01-17 21:34:00,
2013-01-17 16:49:00,46.4,46.1,29.78,West,270,2.7,-999.0,99,-99.99,,,0.76,Acu-Link.com,2013-01-17 21:49:00,
2013-01-17 17:05:00,46.0,45.7,29.78,NNW,337,6.3,-999.0,99,-99.99,,,0.78,Acu-Link.com,2013-01-17 22:05:00,
2013-01-17 17:20:00,45.5,45.2,29.78,North,0,3.7,-999.0,99,-99.99,,,0.78,Acu-Link.com,2013-01-17 22:20:00,
2013-01-17 17:35:00,45.3,45.0,29.79,NNW,337,5.8,-999.0,99,-99.99,,,0.79,Acu-Link.com,2013-01-17 22:35:00,
2013-01-17 17:51:00,45.0,44.7,29.80,WNW,292,3.2,-999.0,99,-99.99,,,0.79,Acu-Link.com,2013-01-17 22:51:00,
2013-01-17 18:06:00,44.4,44.1,29.82,NNW,337,4.2,-999.0,99,-99.99,,,0.92,Acu-Link.com,2013-01-17 23:06:00,
2013-01-17 18:21:00,43.5,43.2,29.82,North,0,5.3,-999.0,99,-99.99,,,0.97,Acu-Link.com,2013-01-17 23:21:00,
2013-01-17 18:37:00,43.0,42.7,29.80,WSW,247,14.5,-999.0,99,-99.99,,,1.02,Acu-Link.com,2013-01-17 23:37:00,
2013-01-17 18:55:00,43.0,42.7,29.83,South,180,8.3,-999.0,99,-99.99,,,1.06,Acu-Link.com,2013-01-17 23:55:00,